YAMAL 401

Last updated on Thu Aug 13 2026 00:03:00 GMT+0000 (Coordinated Universal Time)

1 40345U 14082A 26224.09092779 -.00000245 00000+0 00000+0 0 9990 2 40345 0.0315 234.7234 0000560 63.4887 144.9900 1.00271850 42477
UTC large
Height (km)
Speed (km/s)
/
Latitude / Longitude
Inclination (degrees)
Orbital Period (minutes)
Azimuth
Elevation
Range (km)
Doppler Factor

Next 0 passes for location: London (51.5072 / 0.1276)

No passes found over London.
YAMAL 401